STARLINK-11291 [DTC]

Last updated on Mon Oct 21 2024 00:02:04 GMT+0000 (Coordinated Universal Time)

1 61208U 24171J 24294.03129948 -.00009910 00000+0 -56670-4 0 9997 2 61208 53.1550 149.4040 0000615 97.8019 262.3072 15.76711872 4973
UTC large
Height (km)
Speed (km/s)
/
Latitude / Longitude
Inclination (degrees)
Orbital Period (minutes)
Azimuth
Elevation
Range (km)
Doppler Factor

Next 0 passes for location: London (51.5072 / 0.1276)

Sorry there are no passes over London.